{"data":{"norad_id":63170,"epoch":"2026-09-22T21:06:25.682688Z","epoch_age_seconds":105159,"freshness":"FRESH","line1":"1 63170U 25046M   26265.87946392 -.00000057  00000+0 -10684-3 0  9998","line2":"2 63170  88.9639 290.5462 0016505  31.1172 329.0953 13.51016513 85765","mean_motion":13.51016513,"eccentricity":0.0016505,"inclination_deg":88.9639,"raan_deg":290.5462,"arg_perigee_deg":31.1172,"mean_anomaly_deg":329.0953,"bstar":-0.00010684,"rev_number":8576,"period_min":106.58641002118,"perigee_km":1056.230197165,"apogee_km":1080.8116149128,"semimajor_km":7446.6579060389,"source":"CELESTRAK","updated_at":"2026-09-23T09:00:21.849576Z"}}